TimeEST,TemperatureF,Dew PointF,Humidity,Sea Level PressureIn,VisibilityMPH,Wind Direction,Wind SpeedMPH,Gust SpeedMPH,PrecipitationIn,Events,Conditions,WindDirDegrees,DateUTC
12:56 AM,-1.8,-8.0,75,30.22,9.0,Calm,Calm,-,N/A,,Clear,0,2014-01-22 05:56:00
1:56 AM,-4.0,-8.0,83,30.21,9.0,Calm,Calm,-,N/A,,Clear,0,2014-01-22 06:56:00
2:56 AM,-4.9,-8.9,83,30.23,9.0,West,5.8,-,N/A,,Clear,280,2014-01-22 07:56:00
3:56 AM,-6.9,-10.8,83,30.22,9.0,Calm,Calm,-,N/A,,Clear,0,2014-01-22 08:56:00
4:56 AM,-8.0,-13.0,79,30.19,9.0,Calm,Calm,-,N/A,,Clear,0,2014-01-22 09:56:00
5:56 AM,-9.9,-15.0,78,30.21,8.0,West,5.8,-,N/A,,Clear,280,2014-01-22 10:56:00
6:56 AM,-6.9,-10.8,83,30.21,8.0,Calm,Calm,-,N/A,,Clear,0,2014-01-22 11:56:00
7:56 AM,-6.9,-11.9,79,30.21,7.0,Calm,Calm,-,N/A,,Clear,0,2014-01-22 12:56:00
8:56 AM,-4.9,-8.9,83,30.20,7.0,Calm,Calm,-,N/A,,Clear,0,2014-01-22 13:56:00
9:56 AM,2.1,-4.9,72,30.18,8.0,SSE,3.5,-,N/A,,Mostly Cloudy,160,2014-01-22 14:56:00
10:56 AM,6.1,-4.9,61,30.17,8.0,SSW,5.8,-,N/A,,Scattered Clouds,210,2014-01-22 15:56:00
11:56 AM,8.1,-4.0,58,30.14,8.0,South,3.5,-,N/A,,Clear,170,2014-01-22 16:56:00
12:56 PM,9.1,-4.0,55,30.11,8.0,SW,5.8,-,N/A,,Clear,220,2014-01-22 17:56:00
1:56 PM,10.0,-2.9,56,30.09,8.0,South,8.1,-,N/A,,Clear,190,2014-01-22 18:56:00
2:56 PM,10.0,-1.8,59,30.08,6.0,South,8.1,-,N/A,,Haze,190,2014-01-22 19:56:00
3:56 PM,11.1,-0.9,58,30.07,8.0,South,9.2,-,N/A,,Partly Cloudy,180,2014-01-22 20:56:00
4:56 PM,11.1,-0.9,58,30.06,8.0,SSW,10.4,-,N/A,,Mostly Cloudy,200,2014-01-22 21:56:00
5:56 PM,10.0,1.0,67,30.08,4.0,SSW,11.5,-,0.00,Snow,Light Snow,200,2014-01-22 22:56:00
6:35 PM,10.4,3.2,73,30.01,5.0,SSW,9.2,-,0.00,Snow,Light Snow,210,2014-01-22 23:35:00
6:56 PM,10.0,3.0,73,30.09,4.0,SSW,10.4,-,0.00,Snow,Light Snow,200,2014-01-22 23:56:00
7:56 PM,10.0,6.1,84,30.09,4.0,SSW,9.2,-,0.00,Snow,Light Snow,200,2014-01-23 00:56:00
8:18 PM,10.4,6.8,85,30.01,4.0,SSW,10.4,-,0.00,,Overcast,200,2014-01-23 01:18:00
8:56 PM,10.0,6.1,84,30.08,5.0,SSW,11.5,-,0.00,,Overcast,210,2014-01-23 01:56:00
9:20 PM,10.4,6.8,85,30.00,3.0,SSW,12.7,-,0.00,Snow,Light Snow,210,2014-01-23 02:20:00
9:56 PM,10.0,6.1,84,30.06,3.0,SSW,11.5,-,0.00,Snow,Light Snow,210,2014-01-23 02:56:00
10:23 PM,10.4,6.8,85,29.99,2.5,SSW,10.4,-,0.00,Snow,Light Snow,200,2014-01-23 03:23:00
10:32 PM,10.4,6.8,85,29.99,2.0,SSW,9.2,-,0.00,Snow,Light Snow,210,2014-01-23 03:32:00
10:46 PM,10.4,6.8,85,29.99,2.5,SSW,11.5,-,0.00,Snow,Light Snow,210,2014-01-23 03:46:00
10:56 PM,11.1,7.2,84,30.05,2.0,SSW,9.2,-,0.00,Snow,Light Snow,210,2014-01-23 03:56:00
11:09 PM,10.4,6.8,85,29.99,4.0,SSW,11.5,-,0.00,Snow,Light Snow,210,2014-01-23 04:09:00
11:21 PM,10.4,6.8,85,29.98,5.0,SSW,10.4,-,0.00,Snow,Light Snow,210,2014-01-23 04:21:00
11:56 PM,11.1,8.1,87,30.05,2.0,SW,10.4,-,0.00,Snow,Light Snow,220,2014-01-23 04:56:00